TimePST,TemperatureF,Dew PointF,Humidity,Sea Level PressureIn,VisibilityMPH,Wind Direction,Wind SpeedMPH,Gust SpeedMPH,PrecipitationIn,Events,Conditions,WindDirDegrees,DateUTC
12:35 AM,48.2,14.0,25,30.45,10.0,East,11.5,-,N/A,,Clear,100,2011-11-27 08:35:00
12:55 AM,48.2,14.0,25,30.44,10.0,East,13.8,18.4,N/A,,Clear,100,2011-11-27 08:55:00
1:15 AM,50.0,14.0,24,30.45,10.0,ESE,16.1,19.6,N/A,,Clear,110,2011-11-27 09:15:00
1:35 AM,50.0,14.0,24,30.45,10.0,ESE,15.0,-,N/A,,Clear,110,2011-11-27 09:35:00
2:15 AM,50.0,14.0,24,30.45,10.0,ESE,12.7,-,N/A,,Clear,110,2011-11-27 10:15:00
2:35 AM,50.0,14.0,24,30.45,10.0,ESE,11.5,-,N/A,,Clear,110,2011-11-27 10:35:00
2:55 AM,48.2,14.0,25,30.44,10.0,ESE,12.7,-,N/A,,Clear,110,2011-11-27 10:55:00
3:15 AM,48.2,14.0,25,30.43,10.0,ESE,15.0,-,N/A,,Clear,110,2011-11-27 11:15:00
3:35 AM,50.0,14.0,24,30.43,10.0,East,13.8,-,N/A,,Clear,90,2011-11-27 11:35:00
3:55 AM,50.0,14.0,24,30.43,10.0,East,12.7,-,N/A,,Clear,100,2011-11-27 11:55:00
4:15 AM,50.0,14.0,24,30.44,10.0,East,12.7,17.3,N/A,,Clear,100,2011-11-27 12:15:00
4:35 AM,50.0,14.0,24,30.43,10.0,East,12.7,18.4,N/A,,Clear,100,2011-11-27 12:35:00
4:55 AM,50.0,14.0,24,30.43,10.0,ESE,12.7,-,N/A,,Clear,110,2011-11-27 12:55:00
5:15 AM,48.2,14.0,25,30.44,10.0,East,11.5,17.3,N/A,,Clear,100,2011-11-27 13:15:00
5:35 AM,48.2,14.0,25,30.44,10.0,East,13.8,-,N/A,,Clear,100,2011-11-27 13:35:00
5:55 AM,48.2,14.0,25,30.44,10.0,East,12.7,19.6,N/A,,Clear,100,2011-11-27 13:55:00
6:15 AM,48.2,15.8,27,30.44,10.0,ESE,13.8,20.7,N/A,,Clear,110,2011-11-27 14:15:00
6:35 AM,48.2,15.8,27,30.45,10.0,East,13.8,-,N/A,,Clear,100,2011-11-27 14:35:00
7:15 AM,50.0,15.8,26,30.45,9.0,ESE,15.0,-,N/A,,Clear,110,2011-11-27 15:15:00
7:35 AM,50.0,15.8,26,30.46,9.0,East,11.5,18.4,N/A,,Clear,100,2011-11-27 15:35:00
7:55 AM,53.6,15.8,22,30.46,9.0,East,10.4,18.4,N/A,,Clear,100,2011-11-27 15:55:00
8:15 AM,55.4,17.6,23,30.47,9.0,East,10.4,-,N/A,,Clear,100,2011-11-27 16:15:00
8:35 AM,55.4,17.6,23,30.47,8.0,ESE,13.8,21.9,N/A,,Clear,110,2011-11-27 16:35:00
8:55 AM,57.2,19.4,23,30.47,8.0,ESE,15.0,19.6,N/A,,Clear,110,2011-11-27 16:55:00
9:15 AM,59.0,17.6,20,30.48,8.0,East,15.0,-,N/A,,Clear,100,2011-11-27 17:15:00
10:15 AM,62.6,17.6,18,30.48,6.0,ESE,15.0,20.7,N/A,,Haze,110,2011-11-27 18:15:00
10:35 AM,62.6,19.4,19,30.47,8.0,ESE,16.1,-,N/A,,Clear,110,2011-11-27 18:35:00
11:15 AM,62.6,17.6,18,30.46,8.0,ESE,15.0,21.9,N/A,,Clear,120,2011-11-27 19:15:00
11:35 AM,62.6,15.8,16,30.45,10.0,ESE,13.8,24.2,N/A,,Clear,120,2011-11-27 19:35:00
11:55 AM,64.4,17.6,16,30.44,9.0,ESE,15.0,23.0,N/A,,Clear,110,2011-11-27 19:55:00
12:15 PM,62.6,15.8,16,30.43,8.0,ESE,16.1,-,N/A,,Clear,120,2011-11-27 20:15:00
12:35 PM,64.4,15.8,15,30.42,9.0,East,15.0,19.6,N/A,,Clear,100,2011-11-27 20:35:00
12:55 PM,64.4,15.8,15,30.42,9.0,ESE,13.8,17.3,N/A,,Clear,110,2011-11-27 20:55:00
1:15 PM,64.4,14.0,14,30.41,9.0,ESE,11.5,17.3,N/A,,Clear,110,2011-11-27 21:15:00
1:35 PM,66.2,14.0,13,30.40,7.0,ESE,11.5,-,N/A,,Clear,110,2011-11-27 21:35:00
1:55 PM,64.4,14.0,14,30.39,8.0,East,6.9,-,N/A,,Clear,100,2011-11-27 21:55:00
2:15 PM,66.2,15.8,14,30.39,9.0,ESE,8.1,-,N/A,,Clear,120,2011-11-27 22:15:00
2:35 PM,66.2,15.8,14,30.39,9.0,ESE,8.1,-,N/A,,Clear,110,2011-11-27 22:35:00
3:15 PM,64.4,15.8,15,30.39,9.0,ESE,6.9,-,N/A,,Clear,120,2011-11-27 23:15:00
3:35 PM,64.4,15.8,15,30.39,10.0,ESE,9.2,-,N/A,,Clear,110,2011-11-27 23:35:00
3:55 PM,62.6,17.6,18,30.38,9.0,SE,8.1,-,N/A,,Clear,130,2011-11-27 23:55:00
4:15 PM,59.0,17.6,20,30.38,9.0,ESE,6.9,-,N/A,,Clear,120,2011-11-28 00:15:00
4:35 PM,55.4,19.4,25,30.38,10.0,SE,9.2,-,N/A,,Clear,130,2011-11-28 00:35:00
4:55 PM,50.0,19.4,30,30.38,9.0,SE,10.4,-,N/A,,Clear,140,2011-11-28 00:55:00
5:15 PM,48.2,19.4,32,30.39,10.0,SE,9.2,-,N/A,,Clear,140,2011-11-28 01:15:00
5:35 PM,48.2,19.4,32,30.39,10.0,ESE,9.2,-,N/A,,Clear,120,2011-11-28 01:35:00
5:55 PM,46.4,19.4,34,30.39,10.0,ESE,9.2,-,N/A,,Clear,120,2011-11-28 01:55:00
6:15 PM,46.4,19.4,34,30.39,10.0,SE,9.2,-,N/A,,Clear,130,2011-11-28 02:15:00
6:35 PM,44.6,19.4,37,30.39,10.0,SE,11.5,-,N/A,,Clear,130,2011-11-28 02:35:00
6:55 PM,44.6,21.2,39,30.39,10.0,SE,9.2,-,N/A,,Clear,130,2011-11-28 02:55:00
7:15 PM,41.0,21.2,45,30.40,10.0,SE,9.2,-,N/A,,Clear,140,2011-11-28 03:15:00
7:35 PM,41.0,19.4,42,30.40,10.0,ESE,5.8,-,N/A,,Clear,110,2011-11-28 03:35:00
7:55 PM,39.2,21.2,49,30.40,10.0,ESE,4.6,-,N/A,,Clear,120,2011-11-28 03:55:00
8:15 PM,39.2,21.2,49,30.40,10.0,Calm,Calm,-,N/A,,Clear,0,2011-11-28 04:15:00
8:35 PM,37.4,21.2,52,30.40,10.0,Calm,Calm,-,N/A,,Clear,0,2011-11-28 04:35:00
8:55 PM,39.2,21.2,49,30.40,10.0,ESE,3.5,-,N/A,,Clear,120,2011-11-28 04:55:00
9:15 PM,37.4,19.4,48,30.40,10.0,Calm,Calm,-,N/A,,Clear,0,2011-11-28 05:15:00
9:35 PM,37.4,21.2,52,30.40,10.0,SE,6.9,-,N/A,,Clear,130,2011-11-28 05:35:00
9:55 PM,35.6,21.2,56,30.40,10.0,Calm,Calm,-,N/A,,Clear,0,2011-11-28 05:55:00
10:15 PM,37.4,19.4,48,30.40,10.0,SE,3.5,-,N/A,,Clear,130,2011-11-28 06:15:00
10:35 PM,35.6,21.2,56,30.40,10.0,Calm,Calm,-,N/A,,Clear,0,2011-11-28 06:35:00
10:55 PM,33.8,21.2,60,30.39,10.0,Calm,Calm,-,N/A,,Clear,0,2011-11-28 06:55:00
11:15 PM,32.0,21.2,64,30.39,10.0,Calm,Calm,-,N/A,,Clear,0,2011-11-28 07:15:00
11:35 PM,35.6,19.4,52,30.38,10.0,ESE,4.6,-,N/A,,Clear,120,2011-11-28 07:35:00
11:55 PM,32.0,19.4,60,30.38,10.0,East,3.5,-,N/A,,Clear,100,2011-11-28 07:55:00